Погода в Шигонах

Россия / Самарская область     53°23′22″N   48°40′47″E
темп.,
°C
ветер,
м/с
пор.,
м/с
влажн.,
%
обл.,
%
осадки,
мм/ч
давл.,
гПа
погр.,
м
22 апреля, чт
чт2201:00+3ю61297100 0.0 1022574
04:00+4ю51098100 0.0 1023382
07:00+4ююв4896100 0.0 1024383
10:00+6ю5785100 0.0 1024416
13:00+10ююв567044 0.0 1024699
16:00+13ююв5658100 0.0 10231387
19:00+12ююв58675 0.2 1023358
22:00+8ююв5107399 0.2 1025372
23 апреля, пт
пт2301:00+6ююв49875 0.0 1025232
04:00+4ююв26965 0.0 1025157
07:00+5ююв269228 0.0 1026199
10:00+9ююв227189 0.0 1025393
13:00+13вюв445999 0.0 1024861
16:00+14в4553100 0.0 10221320
19:00+12в3665100 0.0 1021291
22:00+10всв2571100 0.0 1019109
24 апреля, сб
сб2401:00+8ююв2275100 0.0 101832
04:00+7юв1179100 0.0 101613
07:00+7ююв2287100 0.0 1014159
10:00+8вюв1184100 0.2 1013336
13:00+8в328599 0.3 1012436
16:00+12вюв346399 0.4 10111015
19:00+11вюв347413 0.1 1010131
22:00+10ююв4981100 0.3 1009276
25 апреля, вс
вс2501:00+9юз5118829 0.4 1008527
04:00+6з6108155 0.7 1009843
07:00+6зюз6866100 0.0 1011990
10:00+6юз5681100 0.1 1012778
13:00+5зюз688398 0.3 1014783
16:00+9зюз466086 0.3 10151202
19:00+9зюз23625 0.0 101596
22:00+6юз367769 0.3 1016100
26 апреля, пн
пн2601:00+4зюз38845 0.0 1017174
04:00+3з38811 0.0 1018162
07:00+4з38745 0.0 1019295
10:00+8з46454 0.0 10191047
13:00+11зюз454095 0.0 10191907
16:00+12юз3437100 0.0 10171988
19:00+11ююз2348100 0.0 101665
22:00+8ююв3554100 0.0 1016107